Simultaneous Nadir Overpasses (SNOs) Predictions

Prediction of SNOs between FY3D and NPP Satellite Orbit:

Table of predicted SNOs for the next 14.0 days since TLE Epoch: 12/21/2019
Index Date (FY3D) Time (FY3D) Lat,Lon (FY3D) SZA (FY3D ) Date (NPP) Time (NPP) Lat,Lon (NPP) SZA (NPP ) Distance(km) Time Diff (sec)
1 12/24/2019 10:39:14 -81.26, 138.60 70.99 12/24/2019 10:37:59 -81.27, 138.47 70.93 2.31 75
2 12/24/2019 11:29:58 81.26, -53.75 108.97 12/24/2019 11:28:43 81.26, -53.91 109.03 2.77 75
3 12/24/2019 12:20:42 -81.26, 113.66 71.05 12/24/2019 12:19:27 -81.25, 113.81 71.03 2.52 75
4 12/24/2019 13:11:28 81.26, -79.47 109.01 12/24/2019 13:10:13 81.26, -79.35 109.04 2.07 75
5 12/24/2019 14:02:12 -81.26, 87.94 71.01 12/24/2019 14:00:58 -81.26, 87.99 70.97 0.76 74
6 12/24/2019 14:52:57 81.26,-104.80 109.01 12/24/2019 14:51:43 81.26,-104.78 109.04 0.29 74
7 12/24/2019 15:43:41 -81.26, 62.62 71.01 12/24/2019 15:42:28 -81.26, 62.56 70.96 0.99 73
8 12/24/2019 16:34:26 81.26,-130.13 109.00 12/24/2019 16:33:13 81.26,-130.21 109.05 1.49 73
9 12/24/2019 17:25:11 -81.27, 36.90 70.96 12/24/2019 17:23:59 -81.27, 36.74 70.90 2.75 72
10 12/24/2019 18:15:54 81.25,-155.06 108.94 12/24/2019 18:14:42 81.26,-155.26 109.01 3.27 72
11 12/24/2019 19:06:39 -81.26, 11.96 71.02 12/24/2019 19:05:27 -81.26, 12.08 71.00 2.08 72
12 12/24/2019 19:57:25 81.27, 178.83 109.04 12/24/2019 19:56:13 81.27, 178.92 109.07 1.57 72
13 12/24/2019 20:48:09 -81.27, -13.76 70.98 12/24/2019 20:46:58 -81.27, -13.74 70.94 0.33 71
14 12/24/2019 21:38:54 81.27, 153.50 109.04 12/24/2019 21:37:43 81.27, 153.49 109.08 0.21 71
15 12/24/2019 22:29:38 -81.26, -39.09 70.98 12/24/2019 22:28:28 -81.27, -39.17 70.93 1.43 70
16 12/24/2019 23:20:22 81.26, 128.56 108.98 12/24/2019 23:19:12 81.26, 128.45 109.03 1.98 70
17 12/25/2019 00:11:08 -81.27, -64.80 70.94 12/25/2019 00:09:59 -81.27, -64.99 70.87 3.19 69
18 12/25/2019 01:01:53 81.27, 102.45 109.08 12/25/2019 01:00:43 81.27, 102.62 109.09 2.86 70
19 12/25/2019 01:52:36 -81.26, -89.74 71.00 12/25/2019 01:51:27 -81.26, -89.65 70.97 1.64 69
20 12/25/2019 02:43:21 81.26, 77.52 109.02 12/25/2019 02:42:12 81.26, 77.58 109.05 1.08 69
21 12/25/2019 03:34:05 -81.26,-115.07 71.00 12/25/2019 03:32:57 -81.26,-115.08 70.96 0.12 68
22 12/25/2019 04:24:50 81.26, 52.19 109.01 12/25/2019 04:23:42 81.26, 52.15 109.05 0.70 68
23 12/25/2019 05:15:35 -81.27,-140.79 70.96 12/25/2019 05:14:28 -81.27,-140.90 70.90 1.87 67
24 12/25/2019 06:06:19 81.26, 26.86 109.00 12/25/2019 06:05:12 81.27, 26.71 109.06 2.48 67
25 12/25/2019 06:57:03 -81.26,-165.73 71.01 12/25/2019 06:55:56 -81.26,-165.55 71.00 2.96 67
26 12/25/2019 07:47:49 81.27, 1.14 109.05 12/25/2019 07:46:42 81.27, 1.28 109.07 2.36 67
27 12/25/2019 08:38:33 -81.27, 168.56 70.97 12/25/2019 08:37:27 -81.27, 168.63 70.94 1.20 66
28 12/25/2019 09:29:18 81.27, -24.19 109.04 12/25/2019 09:28:12 81.27, -24.15 109.08 0.58 66
29 12/25/2019 10:20:02 -81.27, 143.23 70.97 12/25/2019 10:18:57 -81.27, 143.19 70.93 0.56 65
30 12/25/2019 11:10:47 81.27, -49.51 109.04 12/25/2019 11:09:42 81.27, -49.59 109.08 1.20 65
31 12/25/2019 12:01:32 -81.27, 117.51 70.93 12/25/2019 12:00:28 -81.27, 117.37 70.87 2.31 64
32 12/25/2019 12:52:16 81.27, -74.84 109.03 12/25/2019 12:51:12 81.27, -75.02 109.09 2.98 64
33 12/25/2019 13:43:00 -81.26, 92.57 70.99 12/25/2019 13:41:56 -81.26, 92.72 70.97 2.52 64
34 12/25/2019 14:33:46 81.27,-100.56 109.08 12/25/2019 14:32:42 81.27,-100.45 109.10 1.86 64
35 12/25/2019 15:24:29 -81.26, 67.24 70.99 12/25/2019 15:23:26 -81.26, 67.29 70.97 0.76 63
36 12/25/2019 16:15:15 81.27,-125.89 109.07 12/25/2019 16:14:12 81.27,-125.88 109.11 0.09 63
37 12/25/2019 17:05:59 -81.27, 41.52 70.95 12/25/2019 17:04:57 -81.27, 41.47 70.91 1.00 62
38 12/25/2019 17:56:43 81.26,-150.83 109.01 12/25/2019 17:55:41 81.27,-150.93 109.06 1.69 62
39 12/25/2019 18:47:29 -81.27, 15.81 70.90 12/25/2019 18:46:28 -81.28, 15.65 70.84 2.75 61
40 12/25/2019 19:38:14 81.28,-176.94 109.11 12/25/2019 19:37:12 81.27,-176.75 109.12 3.15 62
41 12/25/2019 20:28:57 -81.27, -9.13 70.96 12/25/2019 20:27:56 -81.27, -9.01 70.94 2.08 61
42 12/25/2019 21:19:41 81.27, 158.13 109.05 12/25/2019 21:18:40 81.27, 158.21 109.07 1.37 61
43 12/25/2019 22:10:25 -81.27, -34.46 70.97 12/25/2019 22:09:25 -81.27, -34.44 70.94 0.32 60
44 12/25/2019 23:01:10 81.27, 132.80 109.04 12/25/2019 23:00:10 81.27, 132.77 109.08 0.41 60
45 12/25/2019 23:51:55 -81.27, -60.18 70.92 12/25/2019 23:50:56 -81.27, -60.26 70.88 1.44 59
46 12/26/2019 00:42:39 81.27, 107.47 109.04 12/26/2019 00:41:40 81.27, 107.34 109.09 2.19 59
47 12/26/2019 01:33:25 -81.28, -85.90 70.87 12/26/2019 01:32:27 -81.28, -86.08 70.82 3.19 58
48 12/26/2019 02:24:09 81.27, 81.75 109.08 12/26/2019 02:23:10 81.27, 81.91 109.10 2.65 59
49 12/26/2019 03:14:53 -81.27,-110.84 70.93 12/26/2019 03:13:55 -81.27,-110.74 70.92 1.64 58
50 12/26/2019 04:05:38 81.27, 56.42 109.08 12/26/2019 04:04:40 81.27, 56.47 109.10 0.87 58
51 12/26/2019 04:56:22 -81.27,-136.16 70.94 12/26/2019 04:55:25 -81.27,-136.17 70.91 0.12 57
52 12/26/2019 05:47:07 81.27, 31.09 109.07 12/26/2019 05:46:10 81.27, 31.04 109.11 0.91 57
53 12/26/2019 06:37:52 -81.28,-161.88 70.90 12/26/2019 06:36:56 -81.28,-161.99 70.85 1.88 56
54 12/26/2019 07:28:36 81.27, 5.77 109.06 12/26/2019 07:27:40 81.27, 5.61 109.12 2.69 56
55 12/26/2019 08:19:20 -81.27, 173.18 70.96 12/26/2019 08:18:24 -81.27, 173.35 70.95 2.95 56
56 12/26/2019 09:10:06 81.28, -19.95 109.11 12/26/2019 09:09:10 81.27, -19.83 109.12 2.16 56
57 12/26/2019 10:00:49 -81.27, 147.85 70.96 12/26/2019 09:59:54 -81.27, 147.92 70.94 1.20 55
58 12/26/2019 10:51:35 81.28, -45.28 109.10 12/26/2019 10:50:40 81.28, -45.26 109.13 0.38 55
59 12/26/2019 11:42:19 -81.27, 122.13 70.92 12/26/2019 11:41:25 -81.27, 122.10 70.88 0.56 54
60 12/26/2019 12:33:03 81.27, -70.22 109.04 12/26/2019 12:32:09 81.27, -70.30 109.08 1.40 54
61 12/26/2019 13:23:48 -81.27, 96.80 70.92 12/26/2019 13:22:55 -81.28, 96.67 70.88 2.32 53
62 12/26/2019 14:14:32 81.27, -95.55 109.04 12/26/2019 14:13:39 81.27, -95.74 109.09 3.18 53
63 12/26/2019 15:05:17 -81.27, 71.48 70.93 12/26/2019 15:04:24 -81.27, 71.62 70.92 2.51 53
64 12/26/2019 15:56:02 81.27,-121.27 109.08 12/26/2019 15:55:09 81.27,-121.17 109.10 1.66 53
65 12/26/2019 16:46:46 -81.27, 46.15 70.94 12/26/2019 16:45:54 -81.27, 46.19 70.92 0.75 52
66 12/26/2019 17:37:31 81.27,-146.59 109.07 12/26/2019 17:36:39 81.27,-146.60 109.10 0.12 52
67 12/26/2019 18:28:16 -81.28, 20.43 70.89 12/26/2019 18:27:25 -81.28, 20.37 70.85 1.00 51
68 12/26/2019 19:19:00 81.27,-171.92 109.07 12/26/2019 19:18:09 81.27,-172.04 109.11 1.90 51
69 12/26/2019 20:09:45 -81.28, -4.90 70.90 12/26/2019 20:08:55 -81.28, -5.06 70.85 2.76 50
70 12/26/2019 21:00:30 81.28, 162.36 109.11 12/26/2019 20:59:39 81.27, 162.53 109.12 2.94 51
71 12/26/2019 21:51:13 -81.27, -29.84 70.96 12/26/2019 21:50:23 -81.27, -29.72 70.95 2.07 50
72 12/26/2019 22:41:59 81.28, 137.03 109.11 12/26/2019 22:41:09 81.28, 137.10 109.12 1.16 50
73 12/26/2019 23:32:43 -81.28, -55.56 70.91 12/26/2019 23:31:54 -81.27, -55.54 70.89 0.31 49
74 12/27/2019 00:23:28 81.28, 111.70 109.10 12/27/2019 00:22:39 81.28, 111.66 109.13 0.61 49
75 12/27/2019 01:14:12 -81.27, -80.88 70.92 12/27/2019 01:13:24 -81.28, -80.97 70.88 1.45 48
76 12/27/2019 02:04:57 81.28, 86.37 109.09 12/27/2019 02:04:09 81.28, 86.23 109.14 2.39 48
77 12/27/2019 02:55:42 -81.28,-106.60 70.87 12/27/2019 02:54:55 -81.28,-106.79 70.82 3.20 47
78 12/27/2019 03:46:27 81.28, 60.65 109.14 12/27/2019 03:45:39 81.28, 60.80 109.14 2.45 48
79 12/27/2019 04:37:10 -81.27,-131.54 70.94 12/27/2019 04:36:23 -81.27,-131.45 70.92 1.63 47
80 12/27/2019 05:27:55 81.27, 35.72 109.08 12/27/2019 05:27:08 81.27, 35.76 109.10 0.67 47
81 12/27/2019 06:18:40 -81.28,-157.26 70.89 12/27/2019 06:17:54 -81.28,-157.27 70.86 0.13 46
82 12/27/2019 07:09:24 81.27, 10.39 109.07 12/27/2019 07:08:38 81.27, 10.32 109.10 1.11 46
83 12/27/2019 08:00:09 -81.28, 177.41 70.90 12/27/2019 07:59:24 -81.28, 177.30 70.86 1.89 45
84 12/27/2019 08:50:53 81.27, -14.94 109.06 12/27/2019 08:50:08 81.28, -15.11 109.11 2.89 45
85 12/27/2019 09:41:37 -81.27, 152.47 70.96 12/27/2019 09:40:52 -81.27, 152.64 70.96 2.94 45
86 12/27/2019 10:32:23 81.28, -40.66 109.11 12/27/2019 10:31:38 81.28, -40.55 109.12 1.95 45
87 12/27/2019 11:23:07 -81.28, 126.75 70.91 12/27/2019 11:22:23 -81.28, 126.82 70.90 1.18 44
88 12/27/2019 12:13:52 81.28, -65.99 109.10 12/27/2019 12:13:08 81.28, -65.98 109.12 0.17 44
89 12/27/2019 13:04:36 -81.28, 101.43 70.92 12/27/2019 13:03:53 -81.28, 101.39 70.89 0.58 43
90 12/27/2019 13:55:21 81.28, -91.32 109.09 12/27/2019 13:54:38 81.28, -91.41 109.13 1.60 43
91 12/27/2019 14:46:06 -81.28, 75.71 70.87 12/27/2019 14:45:24 -81.28, 75.57 70.83 2.33 42
92 12/27/2019 15:36:51 81.28,-117.04 109.14 12/27/2019 15:36:08 81.28,-116.85 109.14 3.24 43
93 12/27/2019 16:27:34 -81.27, 50.77 70.93 12/27/2019 16:26:52 -81.27, 50.91 70.93 2.50 42
94 12/27/2019 17:18:20 81.28,-142.37 109.13 12/27/2019 17:17:38 81.28,-142.28 109.14 1.46 42
95 12/27/2019 18:09:04 -81.28, 25.05 70.89 12/27/2019 18:08:23 -81.28, 25.09 70.87 0.74 41
96 12/27/2019 18:59:49 81.28,-167.69 109.12 12/27/2019 18:59:08 81.28,-167.71 109.15 0.32 41
97 12/27/2019 19:50:33 -81.28, -0.28 70.90 12/27/2019 19:49:53 -81.28, -0.34 70.87 1.02 40
98 12/27/2019 20:41:17 81.27, 167.37 109.06 12/27/2019 20:40:37 81.28, 167.24 109.10 2.10 40
99 12/27/2019 21:32:03 -81.28, -26.00 70.85 12/27/2019 21:31:24 -81.29, -26.16 70.81 2.78 39
100 12/27/2019 22:22:47 81.28, 141.65 109.11 12/27/2019 22:22:07 81.28, 141.81 109.11 2.74 40
101 12/27/2019 23:13:31 -81.28, -50.94 70.91 12/27/2019 23:12:52 -81.28, -50.82 70.91 2.05 39
102 12/28/2019 00:04:15 81.28, 116.32 109.10 12/28/2019 00:03:36 81.28, 116.38 109.11 0.96 39
103 12/28/2019 00:54:59 -81.28, -76.27 70.92 12/28/2019 00:54:21 -81.28, -76.25 70.90 0.30 38
104 12/28/2019 01:45:44 81.28, 90.99 109.09 12/28/2019 01:45:06 81.28, 90.94 109.12 0.81 38
105 12/28/2019 02:36:29 -81.28,-101.98 70.87 12/28/2019 02:35:52 -81.28,-102.07 70.84 1.46 37
106 12/28/2019 03:27:13 81.28, 65.66 109.08 12/28/2019 03:26:36 81.28, 65.51 109.13 2.59 37
107 12/28/2019 04:17:58 -81.28,-127.31 70.88 12/28/2019 04:17:22 -81.28,-127.50 70.84 3.22 36
108 12/28/2019 05:08:43 81.28, 39.94 109.13 12/28/2019 05:08:06 81.28, 40.08 109.13 2.25 37
109 12/28/2019 05:59:27 -81.28,-152.64 70.89 12/28/2019 05:58:51 -81.28,-152.55 70.88 1.61 36
110 12/28/2019 06:50:12 81.28, 14.62 109.12 12/28/2019 06:49:36 81.28, 14.64 109.14 0.47 36
111 12/28/2019 07:40:56 -81.28,-177.97 70.90 12/28/2019 07:40:21 -81.28,-177.98 70.88 0.15 35
112 12/28/2019 08:31:41 81.28, -10.71 109.11 12/28/2019 08:31:06 81.28, -10.79 109.14 1.31 35
113 12/28/2019 09:22:26 -81.28, 156.31 70.85 12/28/2019 09:21:52 -81.29, 156.20 70.82 1.91 34
114 12/28/2019 10:13:10 81.28, -36.04 109.11 12/28/2019 10:12:36 81.28, -36.22 109.15 3.09 34
115 12/28/2019 11:03:54 -81.28, 131.37 70.91 12/28/2019 11:03:20 -81.28, 131.54 70.92 2.92 34
116 12/28/2019 11:54:40 81.28, -61.76 109.15 12/28/2019 11:54:06 81.28, -61.66 109.16 1.76 34
117 12/28/2019 12:45:23 -81.28, 106.04 70.92 12/28/2019 12:44:50 -81.28, 106.11 70.91 1.16 33
118 12/28/2019 13:36:08 81.28, -86.70 109.09 12/28/2019 13:35:35 81.28, -86.70 109.11 0.05 33
119 12/28/2019 14:26:53 -81.28, 80.33 70.88 12/28/2019 14:26:21 -81.28, 80.29 70.85 0.59 32
120 12/28/2019 15:17:37 81.28,-112.03 109.08 12/28/2019 15:17:05 81.28,-112.13 109.11 1.80 32
121 12/28/2019 16:08:22 -81.28, 55.00 70.89 12/28/2019 16:07:51 -81.28, 54.86 70.85 2.35 31
122 12/28/2019 16:59:07 81.28,-137.75 109.13 12/28/2019 16:58:35 81.28,-137.57 109.12 3.04 32
123 12/28/2019 17:49:51 -81.28, 29.67 70.89 12/28/2019 17:49:20 -81.28, 29.81 70.90 2.48 31
124 12/28/2019 18:40:36 81.28,-163.08 109.12 12/28/2019 18:40:05 81.28,-163.00 109.12 1.26 31
125 12/28/2019 19:31:20 -81.28, 4.34 70.90 12/28/2019 19:30:50 -81.28, 4.38 70.89 0.72 30
126 12/28/2019 20:22:05 81.28, 171.60 109.11 12/28/2019 20:21:35 81.28, 171.56 109.13 0.52 30
127 12/28/2019 21:12:50 -81.29, -21.38 70.86 12/28/2019 21:12:21 -81.29, -21.44 70.83 1.04 29
128 12/28/2019 22:03:34 81.28, 146.27 109.10 12/28/2019 22:03:05 81.28, 146.13 109.14 2.30 29
129 12/28/2019 22:54:19 -81.28, -46.71 70.87 12/28/2019 22:53:51 -81.29, -46.87 70.83 2.80 28
130 12/28/2019 23:45:04 81.29, 120.55 109.15 12/28/2019 23:44:35 81.28, 120.70 109.14 2.55 29
131 12/29/2019 00:35:47 -81.28, -71.65 70.93 12/29/2019 00:35:19 -81.28, -71.53 70.93 2.03 28
132 12/29/2019 01:26:33 81.29, 95.22 109.14 12/29/2019 01:26:05 81.28, 95.26 109.15 0.77 28
133 12/29/2019 02:17:17 -81.28, -97.37 70.88 12/29/2019 02:16:50 -81.28, -97.35 70.87 0.27 27
134 12/29/2019 03:08:02 81.28, 69.89 109.13 12/29/2019 03:07:35 81.29, 69.83 109.15 1.01 27
135 12/29/2019 03:58:46 -81.28,-122.70 70.89 12/29/2019 03:58:20 -81.28,-122.78 70.86 1.49 26
136 12/29/2019 04:49:30 81.28, 44.95 109.07 12/29/2019 04:49:04 81.28, 44.79 109.10 2.79 26
137 12/29/2019 05:40:16 -81.29,-148.41 70.85 12/29/2019 05:39:51 -81.29,-148.61 70.80 3.25 25
138 12/29/2019 06:31:00 81.28, 19.23 109.11 12/29/2019 06:30:34 81.28, 19.35 109.11 2.05 26
139 12/29/2019 07:21:44 -81.28,-173.35 70.91 12/29/2019 07:21:19 -81.28,-173.26 70.91 1.58 25
140 12/29/2019 08:12:29 81.28, -6.10 109.10 12/29/2019 08:12:04 81.28, -6.08 109.12 0.28 25
141 12/29/2019 09:03:14 -81.29, 160.93 70.86 12/29/2019 09:02:50 -81.29, 160.92 70.85 0.18 24
142 12/29/2019 09:53:58 81.28, -31.43 109.10 12/29/2019 09:53:34 81.28, -31.51 109.12 1.50 24
143 12/29/2019 10:44:43 -81.29, 135.60 70.87 12/29/2019 10:44:20 -81.29, 135.49 70.84 1.93 23
144 12/29/2019 11:35:27 81.28, -56.75 109.09 12/29/2019 11:35:04 81.28, -56.95 109.13 3.28 23
145 12/29/2019 12:26:11 -81.28, 110.66 70.93 12/29/2019 12:25:48 -81.28, 110.83 70.95 2.90 23
146 12/29/2019 13:16:57 81.29, -82.48 109.13 12/29/2019 13:16:34 81.29, -82.38 109.13 1.56 23
147 12/29/2019 14:07:41 -81.29, 84.94 70.89 12/29/2019 14:07:19 -81.28, 85.01 70.89 1.14 22
148 12/29/2019 14:58:26 81.29,-107.80 109.12 12/29/2019 14:58:04 81.29,-107.82 109.14 0.22 22
149 12/29/2019 15:49:10 -81.28, 59.61 70.90 12/29/2019 15:48:49 -81.28, 59.58 70.88 0.62 21
150 12/29/2019 16:39:55 81.29,-133.13 109.11 12/29/2019 16:39:34 81.29,-133.25 109.14 2.00 21
151 12/29/2019 17:30:40 -81.29, 33.89 70.85 12/29/2019 17:30:20 -81.29, 33.75 70.82 2.38 20
152 12/29/2019 18:21:24 81.28,-158.46 109.11 12/29/2019 18:21:03 81.28,-158.29 109.09 2.85 21
153 12/29/2019 19:12:08 -81.28, 8.95 70.92 12/29/2019 19:11:48 -81.28, 9.10 70.92 2.45 20
154 12/29/2019 20:02:53 81.28, 176.21 109.10 12/29/2019 20:02:33 81.28, 176.27 109.10 1.07 20
155 12/29/2019 20:53:37 -81.28, -16.37 70.92 12/29/2019 20:53:18 -81.28, -16.33 70.92 0.69 19
156 12/29/2019 21:44:22 81.28, 150.88 109.09 12/29/2019 21:44:03 81.28, 150.84 109.10 0.71 19
157 12/29/2019 22:35:07 -81.29, -42.09 70.88 12/29/2019 22:34:49 -81.29, -42.16 70.86 1.07 18
158 12/29/2019 23:25:51 81.28, 125.55 109.08 12/29/2019 23:25:33 81.28, 125.40 109.11 2.49 18
159 12/30/2019 00:16:36 -81.29, -67.42 70.89 12/30/2019 00:16:19 -81.29, -67.59 70.86 2.83 17
160 12/30/2019 01:07:21 81.29, 99.83 109.12 12/30/2019 01:07:03 81.29, 99.97 109.11 2.35 18
161 12/30/2019 01:58:05 -81.29, -92.75 70.90 12/30/2019 01:57:48 -81.28, -92.63 70.90 2.00 17
162 12/30/2019 02:48:50 81.29, 74.50 109.11 12/30/2019 02:48:33 81.29, 74.54 109.12 0.57 17
163 12/30/2019 03:39:33 -81.29,-118.08 70.91 12/30/2019 03:39:17 -81.29,-118.07 70.90 0.24 16
164 12/30/2019 04:30:18 81.29, 49.17 109.11 12/30/2019 04:30:02 81.29, 49.10 109.12 1.20 16
165 12/30/2019 05:21:03 -81.29,-143.80 70.86 12/30/2019 05:20:48 -81.29,-143.89 70.84 1.52 15
166 12/30/2019 06:11:47 81.29, 23.85 109.10 12/30/2019 06:11:32 81.29, 23.67 109.13 2.98 15
167 12/30/2019 07:02:32 -81.29,-169.13 70.87 12/30/2019 07:02:18 -81.29,-169.32 70.84 3.28 14
168 12/30/2019 07:53:17 81.29, -1.88 109.14 12/30/2019 07:53:02 81.29, -1.77 109.13 1.86 15
169 12/30/2019 08:44:00 -81.28, 165.93 70.93 12/30/2019 08:43:46 -81.28, 166.02 70.94 1.55 14
170 12/30/2019 09:34:45 81.28, -26.81 109.08 12/30/2019 09:34:31 81.28, -26.81 109.09 0.10 14
171 12/30/2019 10:25:30 -81.29, 140.21 70.89 12/30/2019 10:25:17 -81.29, 140.20 70.88 0.21 13
172 12/30/2019 11:16:14 81.28, -52.14 109.07 12/30/2019 11:16:01 81.29, -52.24 109.09 1.70 13
173 12/30/2019 12:06:59 -81.29, 114.88 70.90 12/30/2019 12:06:47 -81.29, 114.77 70.87 1.97 12
174 12/30/2019 12:57:44 81.29, -77.86 109.11 12/30/2019 12:57:31 81.29, -77.68 109.10 3.15 13
175 12/30/2019 13:48:28 -81.29, 89.55 70.91 12/30/2019 13:48:16 -81.28, 89.72 70.92 2.86 12
176 12/30/2019 14:39:13 81.29,-103.19 109.10 12/30/2019 14:39:01 81.29,-103.11 109.10 1.37 12
177 12/30/2019 15:29:57 -81.29, 64.23 70.92 12/30/2019 15:29:46 -81.29, 64.29 70.92 1.10 11
178 12/30/2019 16:20:42 81.29,-128.52 109.10 12/30/2019 16:20:31 81.29,-128.54 109.10 0.41 11
179 12/30/2019 17:11:26 -81.29, 38.90 70.93 12/30/2019 17:11:16 -81.29, 38.86 70.91 0.66 10
180 12/30/2019 18:02:11 81.29,-153.85 109.09 12/30/2019 18:02:01 81.29,-153.98 109.11 2.19 10
181 12/30/2019 18:52:56 -81.29, 13.18 70.88 12/30/2019 18:52:47 -81.29, 13.03 70.86 2.42 9
182 12/30/2019 19:43:41 81.29,-179.57 109.13 12/30/2019 19:43:31 81.29,-179.41 109.11 2.66 10
183 12/30/2019 20:34:24 -81.29, -11.76 70.94 12/30/2019 20:34:15 -81.28, -11.62 70.96 2.41 9
184 12/30/2019 21:25:10 81.29, 155.10 109.12 12/30/2019 21:25:01 81.29, 155.15 109.12 0.88 9
185 12/30/2019 22:15:54 -81.29, -37.48 70.90 12/30/2019 22:15:46 -81.29, -37.44 70.90 0.65 8
186 12/30/2019 23:06:39 81.29, 129.77 109.11 12/30/2019 23:06:31 81.29, 129.72 109.12 0.90 8
187 12/30/2019 23:57:23 -81.29, -62.81 70.91 12/30/2019 23:57:16 -81.29, -62.88 70.90 1.11 7
188 12/31/2019 00:48:08 81.29, 104.44 109.10 12/31/2019 00:48:01 81.29, 104.28 109.13 2.68 7
189 12/31/2019 01:38:52 -81.29, -88.14 70.92 12/31/2019 01:38:46 -81.29, -88.31 70.89 2.87 6
190 12/31/2019 02:29:37 81.29, 79.11 109.09 12/31/2019 02:29:30 81.29, 79.24 109.08 2.16 7
191 12/31/2019 03:20:21 -81.29,-113.47 70.93 12/31/2019 03:20:15 -81.29,-113.35 70.94 1.96 6
192 12/31/2019 04:11:06 81.29, 53.79 109.08 12/31/2019 04:11:00 81.29, 53.81 109.08 0.39 6
193 12/31/2019 05:01:50 -81.29,-138.80 70.94 12/31/2019 05:01:45 -81.29,-138.79 70.94 0.21 5
194 12/31/2019 05:52:35 81.29, 28.46 109.07 12/31/2019 05:52:30 81.29, 28.37 109.09 1.39 5
195 12/31/2019 06:43:20 -81.29,-164.52 70.89 12/31/2019 06:43:16 -81.29,-164.61 70.88 1.56 4
196 12/31/2019 07:34:04 81.29, 3.13 109.06 12/31/2019 07:34:00 81.29, 2.94 109.09 3.17 4
197 12/31/2019 08:24:48 -81.29, 170.54 70.96 12/31/2019 08:24:44 -81.28, 170.74 70.98 3.27 4
198 12/31/2019 09:15:34 81.29, -22.59 109.11 12/31/2019 09:15:30 81.29, -22.49 109.10 1.67 4
199 12/31/2019 10:06:18 -81.29, 144.82 70.91 12/31/2019 10:06:15 -81.29, 144.91 70.92 1.51 3
200 12/31/2019 10:57:03 81.29, -47.92 109.10 12/31/2019 10:57:00 81.29, -47.93 109.10 0.11 3
201 12/31/2019 11:47:47 -81.29, 119.49 70.92 12/31/2019 11:47:45 -81.29, 119.48 70.92 0.25 2
202 12/31/2019 12:38:32 81.29, -73.25 109.09 12/31/2019 12:38:30 81.29, -73.36 109.11 1.88 2
203 12/31/2019 13:29:16 -81.29, 94.17 70.93 12/31/2019 13:29:15 -81.29, 94.05 70.92 2.01 1
204 12/31/2019 14:20:01 81.29, -98.58 109.08 12/31/2019 14:19:59 81.29, -98.41 109.06 2.96 2
205 12/31/2019 15:10:45 -81.29, 68.84 70.94 12/31/2019 15:10:44 -81.29, 69.00 70.97 2.82 1
206 12/31/2019 16:01:30 81.29,-123.91 109.07 12/31/2019 16:01:29 81.29,-123.84 109.06 1.18 1
207 12/31/2019 16:52:14 -81.29, 43.51 70.95 12/31/2019 16:52:14 -81.29, 43.57 70.96 1.06 0
208 12/31/2019 17:42:59 81.29,-149.24 109.06 12/31/2019 17:42:59 81.29,-149.27 109.06 0.60 0
209 12/31/2019 18:33:44 -81.29, 17.79 70.91 12/31/2019 18:33:45 -81.29, 17.75 70.90 0.70 1
210 12/31/2019 19:24:28 81.29,-174.57 109.05 12/31/2019 19:24:29 81.29,-174.71 109.07 2.37 1
211 12/31/2019 20:15:13 -81.29, -7.54 70.92 12/31/2019 20:15:15 -81.29, -7.69 70.90 2.46 2
212 12/31/2019 21:05:58 81.29, 159.71 109.09 12/31/2019 21:05:59 81.29, 159.86 109.07 2.47 1
213 12/31/2019 21:56:42 -81.29, -32.87 70.93 12/31/2019 21:56:44 -81.29, -32.73 70.95 2.37 2
214 12/31/2019 22:47:27 81.29, 134.38 109.08 12/31/2019 22:47:29 81.29, 134.42 109.08 0.69 2
215 12/31/2019 23:38:11 -81.29, -58.20 70.94 12/31/2019 23:38:14 -81.29, -58.16 70.94 0.61 3
216 01/01/2020 00:28:56 81.29, 109.05 109.07 01/01/2020 00:28:59 81.29, 108.99 109.08 1.09 3
217 01/01/2020 01:19:40 -81.29, -83.53 70.95 01/01/2020 01:19:44 -81.29, -83.60 70.94 1.15 4
218 01/01/2020 02:10:25 81.29, 83.72 109.06 01/01/2020 02:10:29 81.29, 83.55 109.08 2.86 4
219 01/01/2020 03:01:10 -81.29,-109.25 70.90 01/01/2020 03:01:15 -81.30,-109.42 70.88 2.91 5
220 01/01/2020 03:51:54 81.29, 58.39 109.05 01/01/2020 03:51:58 81.29, 58.51 109.03 1.98 4
221 01/01/2020 04:42:38 -81.29,-134.19 70.97 01/01/2020 04:42:43 -81.29,-134.08 70.99 1.92 5
222 01/01/2020 05:33:23 81.29, 33.06 109.04 01/01/2020 05:33:28 81.29, 33.08 109.04 0.20 5
223 01/01/2020 06:24:07 -81.29,-159.91 70.92 01/01/2020 06:24:13 -81.29,-159.90 70.93 0.16 6
224 01/01/2020 07:14:51 81.29, 7.74 109.03 01/01/2020 07:14:57 81.29, 7.64 109.04 1.58 6
225 01/01/2020 08:05:36 -81.29, 174.76 70.93 01/01/2020 08:05:43 -81.29, 174.67 70.93 1.60 7
226 01/01/2020 08:56:21 81.29, -17.99 109.08 01/01/2020 08:56:27 81.29, -17.79 109.05 3.27 6
227 01/01/2020 09:47:05 -81.29, 149.43 70.94 01/01/2020 09:47:12 -81.29, 149.62 70.98 3.23 7
228 01/01/2020 10:37:50 81.29, -43.32 109.07 01/01/2020 10:37:57 81.29, -43.23 109.05 1.49 7
229 01/01/2020 11:28:34 -81.29, 124.10 70.96 01/01/2020 11:28:42 -81.29, 124.19 70.97 1.46 8
230 01/01/2020 12:19:19 81.29, -68.64 109.06 01/01/2020 12:19:27 81.29, -68.66 109.05 0.29 8
231 01/01/2020 13:10:03 -81.29, 98.77 70.97 01/01/2020 13:10:12 -81.29, 98.76 70.97 0.30 9
232 01/01/2020 14:00:48 81.29, -93.97 109.05 01/01/2020 14:00:57 81.29, -94.10 109.06 2.07 9
233 01/01/2020 14:51:32 -81.29, 73.45 70.98 01/01/2020 14:51:42 -81.29, 73.32 70.96 2.06 10
234 01/01/2020 15:42:17 81.29,-119.30 109.04 01/01/2020 15:42:26 81.29,-119.14 109.01 2.78 9
235 01/01/2020 16:33:01 -81.29, 48.12 70.99 01/01/2020 16:33:11 -81.29, 48.28 71.01 2.77 10
236 01/01/2020 17:23:46 81.29,-144.63 109.03 01/01/2020 17:23:56 81.29,-144.57 109.01 1.00 10
237 01/01/2020 18:14:31 -81.29, 22.40 70.94 01/01/2020 18:14:42 -81.29, 22.46 70.96 1.01 11
238 01/01/2020 19:05:15 81.29,-169.96 109.01 01/01/2020 19:05:26 81.29,-170.01 109.02 0.78 11
239 01/01/2020 19:56:00 -81.29, -2.93 70.95 01/01/2020 19:56:12 -81.29, -2.98 70.95 0.75 12
240 01/01/2020 20:46:44 81.29, 164.71 109.00 01/01/2020 20:46:56 81.29, 164.56 109.02 2.56 12
241 01/01/2020 21:37:29 -81.29, -28.26 70.96 01/01/2020 21:37:42 -81.30, -28.41 70.95 2.51 13
242 01/01/2020 22:28:14 81.29, 138.99 109.05 01/01/2020 22:28:26 81.29, 139.12 109.02 2.29 12
243 01/01/2020 23:18:58 -81.29, -53.59 70.97 01/01/2020 23:19:11 -81.29, -53.46 71.00 2.32 13
244 01/02/2020 00:09:43 81.29, 113.66 109.04 01/02/2020 00:09:56 81.29, 113.69 109.03 0.51 13
245 01/02/2020 01:00:27 -81.29, -78.92 70.98 01/02/2020 01:00:41 -81.29, -78.89 71.00 0.56 14
246 01/02/2020 01:51:12 81.29, 88.33 109.03 01/02/2020 01:51:26 81.29, 88.25 109.03 1.27 14
247 01/02/2020 02:41:56 -81.29,-104.25 71.00 01/02/2020 02:42:11 -81.29,-104.32 70.99 1.21 15
248 01/02/2020 03:32:41 81.29, 63.00 109.02 01/02/2020 03:32:56 81.29, 62.82 109.03 3.05 15
249 01/02/2020 04:23:26 -81.30,-129.97 70.95 01/02/2020 04:23:42 -81.30,-130.15 70.94 2.97 16
250 01/02/2020 05:14:10 81.29, 37.67 109.01 01/02/2020 05:14:25 81.29, 37.78 108.98 1.80 15
251 01/02/2020 06:04:55 -81.30,-155.30 70.96 01/02/2020 06:05:11 -81.29,-155.19 70.99 1.87 16
252 01/02/2020 06:55:39 81.29, 12.34 109.00 01/02/2020 06:55:55 81.29, 12.34 108.99 0.06 16
253 01/02/2020 07:46:24 -81.29, 179.37 70.97 01/02/2020 07:46:41 -81.29, 179.38 70.98 0.11 17
254 01/02/2020 08:37:08 81.29, -12.99 108.98 01/02/2020 08:37:25 81.29, -13.09 108.99 1.76 17
255 01/02/2020 09:27:53 -81.29, 154.04 70.98 01/02/2020 09:28:11 -81.30, 153.94 70.98 1.66 18
256 01/02/2020 10:18:38 81.30, -38.71 109.03 01/02/2020 10:18:55 81.29, -38.53 108.99 3.09 17
257 01/02/2020 11:09:22 -81.29, 128.71 70.99 01/02/2020 11:09:40 -81.29, 128.90 71.03 3.17 18
258 01/02/2020 12:00:07 81.29, -64.04 109.02 01/02/2020 12:00:25 81.29, -63.96 109.00 1.31 18
259 01/02/2020 12:50:51 -81.29, 103.38 71.01 01/02/2020 12:51:10 -81.29, 103.46 71.03 1.41 19
260 01/02/2020 13:41:36 81.29, -89.37 109.01 01/02/2020 13:41:55 81.29, -89.40 109.00 0.47 19
261 01/02/2020 14:32:20 -81.29, 78.05 71.02 01/02/2020 14:32:40 -81.29, 78.03 71.02 0.36 20
262 01/02/2020 15:23:05 81.29,-114.70 109.00 01/02/2020 15:23:25 81.30,-114.83 109.00 2.25 20
263 01/02/2020 16:13:50 -81.30, 52.33 70.97 01/02/2020 16:14:11 -81.30, 52.21 70.97 2.11 21
264 01/02/2020 17:04:35 81.30,-140.42 109.04 01/02/2020 17:04:55 81.30,-140.27 109.01 2.60 20
265 01/02/2020 17:55:19 -81.30, 27.00 70.98 01/02/2020 17:55:40 -81.29, 27.16 71.02 2.72 21
266 01/02/2020 18:46:04 81.30,-165.75 109.03 01/02/2020 18:46:25 81.30,-165.70 109.01 0.82 21
267 01/02/2020 19:36:48 -81.30, 1.67 70.99 01/02/2020 19:37:10 -81.30, 1.73 71.02 0.95 22
268 01/02/2020 20:27:33 81.30, 168.92 109.02 01/02/2020 20:27:55 81.30, 168.86 109.01 0.96 22
269 01/02/2020 21:18:17 -81.30, -23.66 71.01 01/02/2020 21:18:40 -81.30, -23.71 71.01 0.81 23
270 01/02/2020 22:09:01 81.29, 143.98 108.95 01/02/2020 22:09:24 81.29, 143.82 108.96 2.73 23
271 01/02/2020 22:59:46 -81.29, -48.99 71.02 01/02/2020 23:00:10 -81.30, -49.14 71.01 2.57 24
272 01/02/2020 23:50:31 81.30, 118.26 108.99 01/02/2020 23:50:54 81.29, 118.39 108.96 2.11 23
273 01/03/2020 00:41:15 -81.29, -74.32 71.03 01/03/2020 00:41:39 -81.29, -74.18 71.06 2.26 24
274 01/03/2020 01:32:00 81.30, 92.93 108.98 01/03/2020 01:32:24 81.29, 92.95 108.97 0.33 24
275 01/03/2020 02:22:44 -81.29, -99.65 71.04 01/03/2020 02:23:09 -81.29, -99.62 71.06 0.50 25
276 01/03/2020 03:13:29 81.29, 67.60 108.97 01/03/2020 03:13:54 81.30, 67.52 108.97 1.45 25
277 01/03/2020 04:04:14 -81.30,-125.37 71.00 01/03/2020 04:04:40 -81.30,-125.44 71.00 1.27 26
278 01/03/2020 04:54:58 81.29, 42.27 108.96 01/03/2020 04:55:24 81.30, 42.08 108.97 3.22 26
279 01/03/2020 05:45:43 -81.30,-150.70 71.01 01/03/2020 05:46:10 -81.30,-150.88 71.00 3.03 27
280 01/03/2020 06:36:28 81.30, 16.55 109.00 01/03/2020 06:36:54 81.30, 16.65 108.98 1.62 26
281 01/03/2020 07:27:12 -81.30,-176.03 71.02 01/03/2020 07:27:39 -81.30,-175.92 71.05 1.80 27
282 01/03/2020 08:17:57 81.30, -8.78 108.99 01/03/2020 08:18:24 81.30, -8.79 108.98 0.17 27
283 01/03/2020 09:08:41 -81.30, 158.64 71.03 01/03/2020 09:09:09 -81.30, 158.65 71.05 0.04 28
284 01/03/2020 09:59:25 81.30, -34.11 108.98 01/03/2020 09:59:53 81.30, -34.22 108.98 1.93 28
285 01/03/2020 10:50:09 -81.30, 133.31 71.04 01/03/2020 10:50:38 -81.30, 133.21 71.04 1.72 29
286 01/03/2020 11:40:54 81.30, -59.44 108.97 01/03/2020 11:41:22 81.29, -59.26 108.93 2.91 28
287 01/03/2020 12:31:38 -81.30, 107.99 71.05 01/03/2020 12:32:07 -81.29, 108.17 71.09 3.11 29
288 01/03/2020 13:22:23 81.30, -84.77 108.96 01/03/2020 13:22:52 81.30, -84.70 108.93 1.13 29
289 01/03/2020 14:13:07 -81.30, 82.66 71.06 01/03/2020 14:13:37 -81.29, 82.73 71.09 1.35 30
290 01/03/2020 15:03:52 81.30,-110.10 108.95 01/03/2020 15:04:22 81.30,-110.13 108.94 0.64 30
291 01/03/2020 15:54:36 -81.29, 57.33 71.08 01/03/2020 15:55:07 -81.29, 57.30 71.09 0.42 31
292 01/03/2020 16:45:21 81.30,-135.43 108.94 01/03/2020 16:45:52 81.30,-135.57 108.94 2.42 31
293 01/03/2020 17:36:06 -81.30, 31.60 71.03 01/03/2020 17:36:38 -81.30, 31.48 71.03 2.18 32
294 01/03/2020 18:26:51 81.30,-161.15 108.98 01/03/2020 18:27:22 81.30,-161.00 108.94 2.42 31
295 01/03/2020 19:17:35 -81.30, 6.28 71.04 01/03/2020 19:18:07 -81.30, 6.43 71.08 2.65 32
296 01/03/2020 20:08:20 81.30, 173.52 108.97 01/03/2020 20:08:52 81.30, 173.56 108.94 0.65 32
297 01/03/2020 20:59:04 -81.30, -19.05 71.06 01/03/2020 20:59:37 -81.30, -19.00 71.08 0.89 33
298 01/03/2020 21:49:49 81.30, 148.19 108.96 01/03/2020 21:50:22 81.30, 148.13 108.95 1.13 33
299 01/03/2020 22:40:33 -81.30, -44.38 71.07 01/03/2020 22:41:07 -81.30, -44.44 71.08 0.87 34
300 01/03/2020 23:31:18 81.30, 122.86 108.94 01/03/2020 23:31:52 81.30, 122.69 108.95 2.91 34
301 01/04/2020 00:22:02 -81.30, -69.71 71.08 01/04/2020 00:22:37 -81.30, -69.87 71.08 2.64 35
302 01/04/2020 01:12:47 81.30, 97.53 108.93 01/04/2020 01:13:21 81.30, 97.65 108.90 1.94 34
303 01/04/2020 02:03:31 -81.30, -95.04 71.09 01/04/2020 02:04:06 -81.29, -94.91 71.13 2.19 35
304 01/04/2020 02:54:16 81.30, 72.20 108.92 01/04/2020 02:54:51 81.30, 72.21 108.90 0.16 35




NCC Satellite Simultaneous Nadir Overpasses (SNOs) Prediction Service
